CAPE
29 27 33 0 0 0 0 0 0 0 0 0 0 0 0 0 0 0 0 0 0 0 0 0 0 0 0 0 0 0 0 0 0 0 0 0 0 0 0 0 0 0 0 0 0 0 0
10 12 6 0 0 0 0 0 0 0 0 0 0 0 0 0 0 0 0 0 0 0 0 0 0 0 0 0 0 0 0 0 0 0 0 0 0 0 0 0 0 0 0 0 0 0 0
7 6 0 1 0 0 0 0 0 0 0 0 0 0 0 0 0 0 0 0 0 0 0 0 0 0 0 0 0 0 0 0 0 0 0 0 0 0 0 0 0 0 0 0 0 0 0
3 24 12 0 0 0 0 0 0 0 0 0 0 0 0 0 0 0 0 0 0 0 0 0 0 0 0 0 0 0 0 0 0 0 0 0 0 0 0 0 0 0 0 0 0 0 0
28 21 0 2 0 0 0 0 0 0 0 0 0 0 0 0 0 0 0 0 0 0 0 0 0 0 0 0 0 0 0 0 0 0 0 0 0 0 0 0 0 0 0 0 0 0 0
38 20 11 7 0 0 0 0 0 0 0 0 0 0 0 0 0 0 0 0 0 0 0 0 0 0 0 0 0 0 0 0 0 0 0 0 0 0 0 0 0 0 0 0 0 0 0
46 50 7 10 0 0 0 0 0 0 0 0 0 0 0 0 0 0 0 0 0 0 0 0 0 0 0 0 0 0 0 0 0 0 0 0 0 0 0 0 0 0 0 0 0 0 0
48 56 5 8 0 0 0 0 0 0 0 0 0 0 0 0 0 0 0 0 0 0 0 0 0 0 0 0 0 0 0 0 0 0 0 0 0 0 0 0 0 0 0 0 0 0 0
65 3 0 12 0 0 0 0 0 0 0 0 0 0 0 0 0 0 0 0 0 0 0 0 0 0 0 0 0 0 0 0 0 0 0 0 0 0 0 0 0 0 0 0 0 0 0
25 0 0 2 0 0 0 0 0 0 0 0 0 0 0 0 0 0 0 0 0 0 0 0 0 0 0 0 0 0 0 0 0 0 0 0 0 0 0 0 0 0 0 0 0 0 0
1 0 0 0 0 0 0 0 0 0 0 0 0 0 0 0 0 0 0 0 0 0 0 0 0 0 0 0 0 0 0 0 0 0 0 0 0 0 0 0 0 0 0 0 0 0 0
2 0 0 0 0 0 0 0 0 0 0 0 0 0 0 0 0 0 0 0 0 0 0 0 0 0 0 0 0 0 0 0 0 0 0 0 0 0 0 0 0 0 0 0 0 0 0
4 0 0 0 1 0 0 0 0 0 0 0 0 0 0 0 0 0 0 0 0 0 0 0 0 0 0 0 0 0 0 0 0 0 0 0 0 0 0 0 0 0 0 0 0 0 0
7 0 0 0 0 0 0 0 0 0 0 0 0 0 0 0 0 0 0 0 0 0 0 0 0 0 0 0 0 0 0 0 0 0 0 0 0 0 0 0 0 0 0 0 0 0 0
9 0 0 12 0 0 0 0 0 0 0 0 0 0 0 0 0 0 0 0 0 0 0 0 0 0 0 0 0 0 0 0 0 0 0 0 0 0 0 0 0 0 0 0 0 0 0
6 1 7 4 0 0 0 0 0 0 0 0 0 0 0 0 0 0 0 0 0 0 0 0 0 0 0 0 0 0 0 0 0 0 0 0 0 0 0 0 0 0 0 0 0 0 0
22 15 14 3 5 0 0 0 0 0 0 0 0 0 0 0 0 0 0 0 0 0 0 0 0 0 0 0 0 0 0 0 0 0 0 0 0 0 0 0 0 0 0 0 0 0 0
25 3 11 3 4 0 0 0 0 0 0 0 0 0 0 0 0 0 0 0 0 0 0 0 0 0 0 0 0 0 0 0 0 0 0 0 0 0 0 0 0 0 0 0 0 0 0
10 5 6 3 0 0 0 0 0 0 0 0 0 0 0 0 0 0 0 0 0 0 0 0 0 0 0 0 0 0 0 0 0 0 0 0 0 0 0 0 0 0 0 0 0 0 0
0 0 4 4 0 0 0 0 0 0 0 0 0 0 0 0 0 0 0 0 0 0 0 0 0 0 0 0 0 0 0 0 0 0 0 0 0 0 0 0 0 0 0 0 0 0 0
0 5 1 12 0 0 0 0 0 0 0 0 0 0 0 0 0 0 0 0 0 0 0 0 0 0 0 0 0 0 0 0 0 0 0 0 0 0 0 0 0 0 0 0 0 0 0
0 5 4 1 0 0 0 0 0 0 0 0 0 0 0 0 0 0 0 0 0 0 0 0 0 0 0 0 0 0 0 0 0 0 0 0 0 0 0 0 0 0 0 0 0 0 0
12 13 0 0 0 1 0 0 0 0 0 0 0 0 0 0 0 0 0 0 0 0 0 0 0 0 0 0 0 0 0 0 0 0 0 0 0 0 0 0 0 0 0 0 0 0 0
5 1 1 1 0 3 0 0 0 0 0 0 0 0 0 0 0 0 0 0 0 0 0 0 0 0 0 0 0 0 0 0 0 0 0 0 0 0 0 0 0 0 0 0 0 0 0
2 3 2 0 4 0 0 0 0 0 0 0 0 0 0 0 0 0 0 0 0 0 0 0 0 0 0 0 0 0 0 0 0 0 0 0 0 0 3 0 0 0 0 0 0 0 0
9 8 6 4 0 0 0 0 0 0 0 0 0 0 0 0 0 0 0 0 0 0 0 0 0 0 0 0 0 9 0 0 0 0 0 0 0 0 0 0 0 0 0 0 0 0 0
13 16 9 10 0 0 0 0 0 0 0 0 0 0 0 1 0 0 0 0 0 0 0 0 0 0 0 0 0 0 0 0 0 0 0 0 0 0 0 0 0 0 0 0 0 0 0
22 19 10 0 0 0 0 0 0 0 0 0 0 0 0 0 0 0 0 0 0 0 0 0 0 0 0 0 0 0 0 0 0 0 0 0 0 0 0 0 0 0 0 0 0 0 0
9 2 0 0 0 0 0 0 0 0 0 0 0 0 0 0 0 0 0 0 0 0 0 0 0 0 0 0 0 0 0 0 0 0 0 0 0 0 0 0 0 0 0 0 0 0 0
CIN
-0 -1 -1 -0 -0 -0 -0 -0 -0 -0 -0 -0 -0 -0 -0 -0 -0 -0 -0 -0 -0 -0 -0 -0 -0 -0 -0 -0 -0 -0 -0 -0 -0 -0 -0 -0 -0 -0 -0 -0 -0 -0 -0 -0 -0 -0 -0
-1 -1 -10 -4 -0 -0 -0 -0 -0 -0 -0 -0 -0 -0 -0 -0 -0 -0 -0 -0 -0 -0 -0 -0 -0 -0 -0 -0 -0 -0 -0 -0 -0 -0 -0 -0 -0 -0 -0 -0 -0 -0 -0 -0 -0 -0 -0
-1 -1 -3 -0 -0 -0 -0 -0 -0 -0 -0 -0 -0 -0 -0 -0 -0 -0 -0 -0 -0 -0 -0 -0 -0 -0 -0 -0 -0 -0 -0 -0 -0 -0 -0 -0 -0 -0 -0 -0 -0 -0 -0 -0 -0 -0 -0
-0 -1 -2 -0 -0 -0 -0 -0 -0 -0 -0 -0 -0 -0 -0 -0 -0 -0 -0 -0 -0 -0 -0 -0 -0 -0 -0 -0 -0 -0 -0 -0 -0 -0 -0 -0 -0 -0 -0 -0 -0 -0 -0 -0 -0 -0 -0
-2 -1 -0 -1 -0 -0 -0 -0 -0 -0 -0 -0 -0 -0 -0 -0 -0 -0 -0 -0 -0 -0 -0 -0 -0 -0 -0 -0 -0 -0 -0 -0 -0 -0 -0 -0 -0 -0 -0 -0 -0 -0 -0 -0 -0 -0 -0
-1 -1 -4 -16 -0 -0 -0 -0 -0 -0 -0 -0 -0 -0 -0 -0 -0 -0 -0 -0 -0 -0 -0 -0 -0 -0 -0 -0 -0 -0 -0 -0 -0 -0 -0 -0 -0 -0 -0 -0 -0 -0 -0 -0 -0 -0 -0
-1 -0 -2 -2 -0 -0 -0 -0 -0 -0 -0 -0 -0 -0 -0 -0 -0 -0 -0 -0 -0 -0 -0 -0 -0 -0 -0 -0 -0 -0 -0 -0 -0 -0 -0 -0 -0 -0 -0 -0 -0 -0 -0 -0 -0 -0 -0
-1 -1 -8 -0 -0 -0 -0 -0 -0 -0 -0 -0 -0 -0 -0 -0 -0 -0 -0 -0 -0 -0 -0 -0 -0 -0 -0 -0 -0 -0 -0 -0 -0 -0 -0 -0 -0 -0 -0 -0 -0 -0 -0 -0 -0 -0 -0
-2 -3 -0 -0 -0 -0 -0 -0 -0 -0 -0 -0 -0 -0 -0 -0 -0 -0 -0 -0 -0 -0 -0 -0 -0 -0 -0 -0 -0 -0 -0 -0 -0 -0 -0 -0 -0 -0 -0 -0 -0 -0 -0 -0 -0 -0 -0
-9 -0 -0 -0 -0 -0 -0 -0 -0 -0 -0 -0 -0 -0 -0 -0 -0 -0 -0 -0 -0 -0 -0 -0 -0 -0 -0 -0 -0 -0 -0 -0 -0 -0 -0 -0 -0 -0 -0 -0 -0 -0 -0 -0 -0 -0 -0
-1 -0 -0 -0 -0 -0 -0 -0 -0 -0 -0 -0 -0 -0 -0 -0 -0 -0 -0 -0 -0 -0 -0 -0 -0 -0 -0 -0 -0 -0 -0 -0 -0 -0 -0 -0 -0 -0 -0 -0 -0 -0 -0 -0 -0 -0 -0
-44 -0 -0 -1 -0 -0 -0 -0 -0 -0 -0 -0 -0 -0 -0 -0 -0 -0 -0 -0 -0 -0 -0 -0 -0 -0 -0 -0 -0 -0 -0 -0 -0 -0 -0 -0 -0 -0 -0 -0 -0 -0 -0 -0 -0 -0 -0
-50 -0 -0 -0 -0 -0 -0 -0 -0 -0 -0 -0 -0 -0 -0 -0 -0 -0 -0 -0 -0 -0 -0 -0 -0 -0 -0 -0 -0 -0 -0 -0 -0 -0 -0 -0 -0 -0 -0 -0 -0 -0 -0 -0 -0 -0 -0
-49 -0 -0 -0 -0 -0 -0 -0 -0 -0 -0 -0 -0 -0 -0 -0 -0 -0 -0 -0 -0 -0 -0 -0 -0 -0 -0 -0 -0 -0 -0 -0 -0 -0 -0 -0 -0 -0 -0 -0 -0 -0 -0 -0 -0 -0 -0
-14 -0 -0 -3 -0 -0 -0 -0 -0 -0 -0 -0 -0 -0 -0 -0 -0 -0 -0 -0 -0 -0 -0 -0 -0 -0 -0 -0 -0 -0 -0 -0 -0 -0 -0 -0 -0 -0 -0 -0 -0 -0 -0 -0 -0 -0 -0
-16 -0 -0 -0 -0 -0 -0 -0 -0 -0 -0 -0 -0 -0 -0 -0 -0 -0 -0 -0 -0 -0 -0 -0 -0 -0 -0 -0 -0 -0 -0 -0 -0 -0 -0 -0 -0 -0 -0 -0 -0 -0 -0 -0 -0 -0 -0
-9 -0 -0 -26 -7 -0 -0 -0 -0 -0 -0 -0 -0 -0 -0 -0 -0 -0 -0 -0 -0 -0 -0 -0 -0 -0 -0 -0 -0 -0 -0 -0 -0 -0 -0 -0 -0 -0 -0 -0 -0 -0 -0 -0 -0 -0 -0
-2 -8 -0 -45 -6 -0 -0 -0 -0 -0 -0 -0 -0 -0 -0 -0 -0 -0 -0 -0 -0 -0 -0 -0 -0 -0 -0 -0 -0 -0 -0 -0 -0 -0 -0 -0 -0 -0 -0 -0 -0 -0 -0 -0 -0 -0 -0
-6 -2 -6 -4 -0 -0 -0 -0 -0 -0 -0 -0 -0 -0 -0 -0 -0 -0 -0 -0 -0 -0 -0 -0 -0 -0 -0 -0 -0 -0 -0 -0 -0 -0 -0 -0 -0 -0 -0 -0 -0 -0 -0 -0 -0 -0 -0
-0 -0 -0 -1 -0 -0 -0 -0 -0 -0 -0 -0 -0 -0 -0 -0 -0 -0 -0 -0 -0 -0 -0 -0 -0 -0 -0 -0 -0 -0 -0 -0 -0 -0 -0 -0 -0 -0 -0 -0 -0 -0 -0 -0 -0 -0 -0
-0 -15 -0 -2 -0 -0 -0 -0 -0 -0 -0 -0 -0 -0 -0 -0 -0 -0 -0 -0 -0 -0 -0 -0 -0 -0 -0 -0 -0 -0 -0 -0 -0 -0 -0 -0 -0 -0 -0 -0 -0 -0 -0 -0 -0 -0 -0
-0 -9 -28 -8 -0 -0 -0 -0 -0 -0 -0 -0 -0 -0 -0 -0 -0 -0 -0 -0 -0 -0 -0 -0 -0 -0 -0 -0 -0 -0 -0 -0 -0 -0 -0 -0 -0 -0 -0 -0 -0 -0 -0 -0 -0 -0 -0
-19 -10 -0 -0 -0 -0 -0 -0 -0 -0 -0 -0 -0 -0 -0 -0 -0 -0 -0 -0 -0 -0 -0 -0 -0 -0 -0 -0 -0 -0 -0 -0 -0 -0 -0 -0 -0 -0 -0 -0 -0 -0 -0 -0 -0 -0 -0
-10 -0 -0 -0 -0 -0 -0 -0 -0 -0 -0 -0 -0 -0 -0 -0 -0 -0 -0 -0 -0 -0 -0 -0 -0 -0 -0 -0 -0 -0 -0 -0 -0 -0 -0 -0 -0 -0 -0 -0 -0 -0 -0 -0 -0 -0 -0
-0 -0 -0 -0 -0 -0 -0 -0 -0 -0 -0 -0 -0 -0 -0 -0 -0 -0 -0 -0 -0 -0 -0 -0 -0 -0 -0 -0 -0 -0 -0 -0 -0 -0 -0 -0 -0 -0 -0 -0 -0 -0 -0 -0 -0 -0 -0
-0 -0 -0 -0 -0 -0 -0 -0 -0 -0 -0 -0 -0 -0 -0 -0 -0 -0 -0 -0 -0 -0 -0 -0 -0 -0 -0 -0 -0 -0 -0 -0 -0 -0 -0 -0 -0 -0 -0 -0 -0 -0 -0 -0 -0 -0 -0
-0 -0 -0 -0 -0 -0 -0 -0 -0 -0 -0 -0 -0 -0 -0 -0 -0 -0 -0 -0 -0 -0 -0 -0 -0 -0 -0 -0 -0 -0 -0 -0 -0 -0 -0 -0 -0 -0 -0 -0 -0 -0 -0 -0 -0 -0 -0
-0 -0 -0 -0 -0 -0 -0 -0 -0 -0 -0 -0 -0 -0 -0 -0 -0 -0 -0 -0 -0 -0 -0 -0 -0 -0 -0 -0 -0 -0 -0 -0 -0 -0 -0 -0 -0 -0 -0 -0 -0 -0 -0 -0 -0 -0 -0
-0 -1 -0 -0 -0 -0 -0 -0 -0 -0 -0 -0 -0 -0 -0 -0 -0 -0 -0 -0 -0 -0 -0 -0 -0 -0 -0 -0 -0 -0 -0 -0 -0 -0 -0 -0 -0 -0 -0 -0 -0 -0 -0 -0 -0 -0 -0
Wind_Speed
16 16 14 16 15 14 13 11 11 9 8 4 4 7 9 11 12 14 14 15 15 16 15 13 12 11 5 6 5 8 11 6 6 8 12 7 11 5 7 8 14 17 19 21 20 22 23
17 15 13 18 16 15 14 12 11 10 9 5 3 6 8 10 12 14 15 15 15 15 13 11 12 13 3 6 4 8 11 3 10 7 9 11 7 7 10 7 7 17 18 16 18 17 18
19 16 16 18 17 16 14 13 11 10 8 8 3 5 8 10 12 14 15 16 15 15 12 10 10 5 8 7 4 7 7 4 7 6 6 8 5 0 4 11 10 10 14 19 12 2 7
21 18 15 18 18 16 14 13 12 10 9 8 4 4 8 10 12 14 16 16 15 13 11 7 7 3 5 2 6 9 12 3 7 4 4 4 4 7 4 8 8 9 2 7 16 7 4
21 18 16 20 20 18 15 13 12 11 9 8 7 3 7 9 12 13 16 18 12 9 9 9 3 2 6 2 4 9 9 7 4 5 5 2 2 4 7 9 9 4 5 2 5 17 4
21 19 15 19 20 19 17 14 12 11 10 8 7 3 6 9 10 13 17 8 7 9 5 3 1 6 2 4 6 8 6 4 2 4 5 1 2 6 5 5 1 3 6 6 8 13 16
21 20 15 20 20 20 18 15 13 12 11 8 6 4 6 8 10 11 10 4 6 5 8 6 5 5 4 2 2 9 5 2 2 1 4 3 2 8 9 9 7 4 5 11 12 7 11
19 19 13 19 22 21 19 17 14 12 11 8 6 5 5 8 10 9 5 3 4 5 10 5 4 6 4 3 2 13 9 1 1 6 5 5 9 7 5 4 7 7 8 10 6 4 9
15 12 10 17 22 21 20 17 15 13 11 8 6 5 4 6 8 3 2 3 5 4 4 4 4 4 4 3 6 11 10 3 8 8 3 3 8 1 2 5 6 6 2 8 7 7 9
13 9 4 11 22 21 20 18 16 14 11 9 6 5 4 6 1 1 2 3 3 3 5 6 3 3 1 1 4 6 8 5 3 7 7 7 3 2 3 5 6 4 3 4 13 11 4
14 8 5 7 22 21 19 17 17 14 12 10 7 4 0 4 3 2 4 3 2 4 7 7 5 2 3 1 2 7 6 3 6 4 5 5 3 2 0 5 5 7 1 6 11 11 4
13 9 3 4 20 20 19 18 16 14 11 10 7 5 7 4 3 3 3 2 3 6 5 6 4 6 6 6 4 2 4 7 1 5 9 7 3 4 5 2 6 3 4 4 6 7 8
14 9 6 0 9 21 20 18 16 14 12 10 5 6 3 1 4 2 2 4 7 6 3 9 7 7 6 4 5 4 6 8 2 4 3 5 4 4 4 4 3 5 7 5 7 7 3
12 12 10 8 7 19 21 19 17 14 12 11 7 3 4 5 2 5 4 5 8 4 7 5 8 10 4 3 4 3 4 6 8 3 3 4 7 3 6 5 5 3 6 5 6 5 5
13 10 8 11 8 17 21 20 19 16 12 12 11 3 3 3 1 3 5 7 2 7 10 14 13 7 5 5 2 3 5 5 4 6 3 1 4 4 6 2 4 3 2 4 4 1 5
14 12 11 7 6 19 21 20 19 16 14 15 5 4 3 4 2 3 5 3 1 2 8 17 7 3 6 8 6 3 3 2 4 2 3 3 3 1 3 3 5 5 3 4 4 5 5
14 13 11 9 13 21 21 20 19 16 14 12 3 5 2 3 3 4 6 3 3 3 0 4 5 7 7 7 5 4 5 4 1 4 1 1 4 5 4 1 2 4 4 1 5 5 5
14 13 10 9 8 18 20 19 19 16 13 3 4 5 2 2 5 1 4 4 2 6 2 3 4 7 8 5 5 4 5 4 1 1 1 2 2 3 2 2 3 4 3 6 5 3 3
14 14 14 14 11 13 20 20 17 17 16 4 4 4 1 1 6 5 5 5 2 5 3 3 4 1 3 6 5 4 5 3 3 2 3 4 2 3 6 6 4 5 3 4 4 4 11
15 13 14 13 13 14 19 22 18 20 10 2 4 5 2 2 2 7 8 7 5 3 4 4 5 4 7 5 5 7 6 3 2 3 2 3 3 6 6 5 3 5 7 9 10 7 9
15 12 20 17 17 18 19 21 19 16 11 2 3 3 1 7 5 5 4 9 8 6 3 1 4 3 7 5 5 6 5 6 5 6 3 3 5 3 5 5 6 11 14 12 15 15 9
15 16 20 20 19 17 19 17 17 12 8 3 5 5 2 4 7 8 1 7 10 5 4 4 7 9 4 5 2 8 8 7 4 7 5 2 1 2 6 3 5 12 17 16 15 16 17
17 21 22 20 18 22 21 19 18 14 6 3 1 2 1 1 5 6 5 7 9 11 2 3 8 8 7 7 9 9 7 6 5 5 8 6 4 3 4 2 7 13 13 11 6 5 9
21 18 21 19 17 20 19 18 16 10 2 1 3 4 3 5 3 5 5 2 9 4 9 5 5 5 7 15 16 13 12 9 7 6 2 7 6 2 4 5 5 5 3 1 6 5 9
21 22 20 16 15 18 16 17 13 11 6 3 3 1 3 6 5 4 10 7 11 6 7 8 5 4 14 4 4 5 3 4 4 3 2 3 5 2 3 4 10 9 5 5 5 2 9
21 21 22 21 19 17 15 15 14 13 10 5 3 3 4 9 4 4 7 10 7 5 5 5 6 9 0 2 3 5 5 5 5 5 2 4 3 5 2 3 4 6 5 3 1 5 9
21 22 23 19 16 18 17 14 15 12 9 5 4 4 4 7 3 0 3 6 4 4 5 6 8 5 3 3 3 4 4 1 6 7 7 6 6 10 8 5 8 3 7 5 5 6 11
21 20 20 18 16 17 16 13 14 14 9 4 5 5 3 5 5 4 3 4 4 4 6 9 6 2 3 6 4 4 4 6 4 4 5 8 8 5 5 5 8 10 8 6 5 4 10
20 19 19 18 16 17 17 15 13 11 10 5 6 3 8 9 5 5 9 10 6 5 5 5 2 6 6 4 2 3 3 3 5 4 5 6 5 2 8 3 5 12 3 2 1 8 7
Wind_Direction
230 231 222 207 208 203 202 210 218 219 243 204 291 315 324 324 323 321 319 318 317 316 315 316 314 311 257 109 74 358 317 333 338 14 29 34 47 63 84 101 90 102 96 95 84 81 85
230 224 228 204 203 204 201 199 217 210 246 224 265 315 324 323 322 320 317 316 315 311 310 315 317 310 212 111 9 342 336 346 12 13 44 42 53 61 82 87 67 111 108 97 85 92 91
227 219 224 207 199 202 198 195 207 213 221 252 246 316 321 321 322 319 314 312 312 308 305 312 321 314 86 79 10 356 1 19 359 5 54 42 34 246 131 107 123 139 135 118 58 159 152
219 215 218 202 198 195 194 196 194 214 204 252 256 312 322 325 323 318 312 309 308 299 302 304 308 269 79 7 338 14 360 49 48 40 50 28 42 81 37 123 139 162 205 222 59 16 16
214 213 214 210 194 192 193 194 188 204 207 230 259 305 325 324 322 317 311 310 293 286 287 289 232 257 110 312 359 356 11 357 39 81 74 87 69 62 164 170 159 180 113 352 106 20 136
209 203 208 207 189 191 192 187 187 194 212 214 255 291 325 323 320 318 311 279 300 291 245 248 135 160 83 26 342 332 19 7 70 131 138 101 128 142 121 236 335 99 152 83 49 50 84
203 203 204 203 189 190 190 186 184 189 211 210 245 286 323 325 322 324 323 239 206 162 48 26 54 75 74 44 299 21 3 246 155 175 104 43 184 63 57 45 69 94 96 104 115 92 83
201 200 201 206 191 190 187 185 180 187 201 211 229 279 321 327 318 313 282 260 23 15 104 49 59 86 50 349 58 28 347 109 230 117 146 164 89 74 74 74 104 120 114 107 78 112 135
180 173 207 206 190 188 183 183 177 184 193 202 223 272 315 313 308 273 16 66 337 306 105 71 38 55 37 30 49 13 358 54 69 95 88 63 95 84 70 100 124 96 62 177 140 123 146
160 143 111 228 194 186 180 180 176 177 189 189 216 268 309 313 186 132 98 355 327 307 170 139 149 92 152 151 77 7 11 352 72 96 74 74 80 118 135 90 314 180 54 199 161 182 215
162 162 195 342 193 184 177 177 172 170 185 180 206 242 297 25 103 209 54 316 287 247 203 141 120 47 85 76 104 51 18 54 78 88 257 88 121 123 231 40 341 59 211 205 194 227 254
158 150 163 331 196 177 173 173 166 166 177 179 198 208 179 128 93 65 315 266 239 214 200 144 144 156 134 67 69 94 61 65 47 70 68 92 75 27 33 68 39 126 148 151 207 231 242
158 150 117 194 323 178 172 170 163 163 173 166 160 133 182 85 108 131 193 207 175 232 155 152 153 156 116 87 78 42 61 60 32 181 147 149 82 97 8 240 205 224 245 224 209 200 332
167 162 153 174 296 205 173 167 159 163 171 163 165 164 58 69 105 161 196 201 218 110 162 127 138 132 111 145 87 96 124 103 60 344 148 220 169 351 9 18 348 347 306 321 292 299 343
172 173 165 176 316 221 171 165 160 164 167 155 158 109 108 62 335 192 209 203 228 174 147 148 143 144 120 126 117 140 54 77 46 11 349 231 115 118 43 358 294 113 252 1 282 204 258
187 185 175 180 315 211 169 164 158 162 167 168 155 133 91 7 211 203 211 215 142 106 135 161 135 219 145 150 157 166 154 84 112 36 334 94 202 62 82 258 83 318 89 233 185 278 274
183 202 188 172 249 196 163 166 154 161 171 194 156 146 114 26 226 198 203 157 147 114 187 189 139 133 137 141 144 126 119 129 184 107 82 24 275 130 205 300 347 177 203 318 299 290 296
188 198 198 172 187 182 161 161 153 159 165 172 177 150 74 172 162 219 168 129 115 145 93 107 97 98 144 139 126 124 133 54 129 158 148 69 312 244 27 78 290 281 290 262 270 175 253
190 199 180 162 178 197 164 154 165 166 179 146 132 101 134 213 176 161 132 118 82 145 113 133 114 78 142 131 118 117 117 83 138 175 169 163 175 249 178 183 187 248 205 250 256 272 261
190 207 180 171 177 195 177 158 176 174 195 104 151 119 101 140 350 151 149 137 121 55 85 76 107 112 129 125 45 135 132 137 146 137 68 226 200 265 291 4 345 241 228 230 234 263 280
185 191 186 180 185 189 191 163 174 178 163 170 354 127 314 160 176 157 131 147 147 144 84 195 106 214 147 130 128 131 143 147 159 155 159 247 255 237 270 271 253 269 267 241 240 252 263
182 180 170 172 173 190 189 166 168 159 151 94 140 140 60 87 125 123 87 178 163 133 149 169 163 146 138 141 186 175 161 192 176 171 181 167 211 252 260 215 243 261 264 255 255 256 264
183 189 175 169 167 194 180 167 162 164 181 147 101 54 203 195 127 140 176 157 172 130 63 28 156 139 150 87 73 65 66 83 122 170 172 178 181 199 270 213 285 261 259 240 232 237 245
173 161 159 156 177 176 168 155 143 154 173 98 135 180 158 119 109 163 141 94 162 179 134 104 140 133 111 119 105 86 81 90 102 86 168 168 181 211 291 300 239 78 111 221 245 250 214
150 146 150 149 156 151 156 141 137 133 135 131 132 233 92 94 108 111 144 136 120 90 92 104 59 53 150 134 113 124 125 176 127 69 134 260 182 145 261 246 314 234 202 208 218 302 200
139 143 138 150 145 145 149 141 133 132 120 89 67 314 83 115 196 121 139 171 148 137 112 84 71 133 175 134 139 160 189 196 171 155 126 141 260 232 139 239 260 69 141 167 155 244 175
130 128 123 123 138 147 149 140 128 126 112 99 82 342 90 106 89 182 138 156 111 113 98 130 141 174 307 147 163 171 196 217 188 192 172 177 201 219 212 255 276 122 149 149 238 62 162
121 115 104 104 106 123 132 133 117 116 123 88 92 12 58 89 72 25 32 129 134 170 149 137 131 175 166 193 181 188 213 196 202 157 183 185 179 197 202 227 256 154 146 225 55 140 151
112 108 99 93 92 106 119 119 113 113 119 104 87 62 58 74 87 63 72 42 12 25 118 178 45 146 164 168 200 141 152 174 205 212 191 218 235 213 219 235 106 185 13 88 149 162 167